Volver al catálogo

STARLINK-31359

ActivoComunicacionesVLEO
NORAD 58945·PAYLOAD·🇺🇸 United States

Lanzado Feb 10, 2024 desde Vandenberg Space Force Base

Loading…

Próximos Pases (próximas 24 horas)

TLE

ActualizadoSource: CelesTrak SupGP

Época: Sep 15, 2026, 02:40 UTC

1 58945C 24027Q   26258.11159722  .00025059  00000+0  74052-3 0  2586
2 58945  53.1587 109.0588 0001251  76.9278 196.4315 15.34372144    15

Sigue STARLINK-31359 en tiempo real con AllMySat

Download on the App Store